FW2664 Weather Reports


Display with metric or nautical units.
time (UTC)temp
F
wind
direction
speed
MPH
gust
MPH
rain 1hr
in
rain 24hr
in
rain mn
in
humidity
%
barometer
mb
20260506160537 54 13 1.0 2.0 0.00 0.71 0.71 94 1012.4
20260506160034 54 22 1.0 3.0 0.00 0.71 0.71 93 1012.4
20260506155532 54 6 2.0 3.0 0.00 0.71 0.71 94 1012.2
20260506153703 55 336 1.0 3.0 0.00 0.71 0.71 94 1012.3
20260506153201 54 56 3.0 3.0 0.00 0.71 0.71 94 1012.3
20260506152657 54 16 2.0 4.0 0.00 0.71 0.71 94 1012.4
20260506152155 54 15 1.0 4.0 0.00 0.71 0.71 94 1012.2
20260506151654 54 51 2.0 2.0 0.00 0.71 0.71 94 1012.2
20260506151150 55 29 0.0 2.0 0.00 0.71 0.71 93 1012.3
20260506150647 55 81 0.0 2.0 0.00 0.71 0.71 94 1012.0
20260506150144 54 12 1.0 2.0 0.00 0.71 0.71 93 1011.9
20260506145641 54 16 0.0 1.0 0.00 0.71 0.71 93 1012.1
20260506145137 54 344 3.0 4.0 0.00 0.71 0.71 93 1011.9
20260506144635 54 0 0.0 2.0 0.00 0.71 0.71 93 1011.9
20260506144131 54 5 2.0 3.0 0.00 0.71 0.71 94 1011.7
20260506143629 54 46 2.0 4.0 0.00 0.71 0.71 94 1011.8
20260506143127 54 34 2.0 4.0 0.00 0.71 0.71 94 1011.6
20260506142625 54 9 1.0 2.0 0.00 0.71 0.71 94 1011.6
20260506142123 54 24 1.0 2.0 0.00 0.71 0.71 95 1011.5
20260506141620 54 53 3.0 4.0 0.00 0.71 0.71 94 1011.2
20260506141119 54 32 2.0 4.0 0.00 0.71 0.71 95 1010.8
20260506140616 54 343 2.0 2.0 0.00 0.71 0.71 95 1010.6
20260506140113 54 336 0.0 2.0 0.00 0.71 0.71 95 1010.8
20260506135610 54 18 0.0 4.0 0.00 0.71 0.71 95 1010.7
20260506135106 54 62 0.0 2.0 0.00 0.71 0.71 95 1010.5
20260506134602 54 44 2.0 3.0 0.00 0.71 0.71 95 1010.2
20260506134058 54 348 1.0 2.0 0.00 0.71 0.71 96 1010.2
20260506133555 53 30 2.0 3.0 0.00 0.71 0.71 95 1010.0
20260506133053 54 355 3.0 3.0 0.02 0.71 0.71 95 1010.1
20260506132550 54 355 3.0 3.0 0.02 0.71 0.71 95 1010.1
20260506132047 53 41 1.0 2.0 0.00 0.71 0.71 95 1009.9
20260506131544 53 23 1.0 3.0 0.02 0.71 0.71 95 1009.3
20260506131040 53 50 2.0 3.0 0.05 0.70 0.70 95 1009.7
20260506130537 53 34 0.0 3.0 0.07 0.70 0.70 95 1010.6
20260506130035 53 48 1.0 3.0 0.09 0.70 0.70 95 1010.5
20260506125533 54 91 1.0 2.0 0.05 0.69 0.69 95 1011.0
20260506125031 54 47 2.0 2.0 0.05 0.68 0.68 95 1011.1
20260506124528 54 85 1.0 2.0 0.02 0.68 0.68 95 1011.1
20260506124026 54 313 1.0 2.0 0.02 0.67 0.67 95 1011.0
20260506123523 54 265 1.0 3.0 0.02 0.67 0.67 95 1011.0
20260506123021 54 341 0.0 2.0 0.00 0.67 0.67 95 1010.7
20260506122518 54 4 1.0 2.0 0.02 0.67 0.67 95 1010.5
20260506122016 54 29 1.0 4.0 0.02 0.67 0.67 95 1010.3
20260506121513 54 41 2.0 3.0 0.00 0.67 0.67 95 1010.3
20260506121009 54 76 0.0 3.0 0.00 0.67 0.67 95 1010.3
20260506120508 54 28 0.0 4.0 0.02 0.67 0.67 95 1010.2
20260506120005 54 55 3.0 4.0 0.02 0.67 0.67 95 1009.8
20260506115502 54 22 2.0 3.0 0.00 0.66 0.66 95 1009.7
20260506115001 54 289 1.0 3.0 0.00 0.66 0.66 96 1009.9
20260506114457 54 277 2.0 3.0 0.00 0.66 0.66 96 1009.7
20260506113956 54 305 3.0 4.0 0.00 0.66 0.66 96 1009.4
20260506113453 54 272 2.0 4.0 0.00 0.66 0.66 96 1009.4
20260506112950 54 91 4.0 4.0 0.00 0.66 0.66 96 1009.3
20260506112447 54 286 2.0 4.0 0.00 0.66 0.66 96 1009.7
20260506111944 54 287 2.0 2.0 0.00 0.66 0.66 96 1009.0
20260506111443 54 65 0.0 2.0 0.00 0.66 0.66 96 1008.0
20260506110939 54 30 1.0 3.0 0.00 0.66 0.66 95 1008.0
20260506110437 54 87 2.0 4.0 0.09 0.66 0.66 95 1007.9
20260506105933 54 304 0.0 3.0 0.12 0.66 0.66 95 1008.5
20260506105430 54 9 2.0 2.0 0.09 0.65 0.65 95 1008.5
20260506104927 54 57 2.0 2.0 0.33 0.64 0.64 95 1008.2
20260506104425 54 25 0.0 3.0 0.35 0.63 0.63 95 1008.4
20260506103923 54 65 0.0 4.0 0.19 0.59 0.59 94 1008.7
20260506103420 55 49 0.0 2.0 0.17 0.57 0.57 94 1008.9
20260506102917 55 10 1.0 2.0 0.14 0.56 0.56 94 1008.5
20260506102415 55 80 1.0 2.0 0.05 0.54 0.54 94 1008.8
20260506073513 73 258 2.0 6.0 0.00 0.00 0.00 70 1005.0
20260506073010 73 180 1.0 9.0 0.00 0.00 0.00 70 1004.4
20260506072507 73 221 3.0 10.0 0.00 0.00 0.00 69 1004.7
20260506072004 73 122 2.0 5.0 0.00 0.00 0.00 68 1004.4
20260506071502 73 353 3.0 4.0 0.00 0.00 0.00 68 1004.5
20260506070959 73 227 3.0 7.0 0.00 0.00 0.00 69 1004.6
20260506070456 73 147 4.0 7.0 0.00 0.00 0.00 68 1004.7
20260506062433 72 121 6.0 11.0 0.00 0.00 0.00 67 1004.9
20260506061929 72 184 2.0 9.0 0.00 0.00 0.00 67 1005.0
20260506061426 72 192 1.0 3.0 0.00 0.00 0.00 67 1005.2
20260506060924 72 160 3.0 9.0 0.00 0.00 0.00 67 1005.1
20260506060422 72 104 2.0 8.0 0.00 0.00 0.00 67 1005.2
20260506051354 71 116 0.0 11.0 0.00 0.00 0.00 66 1006.0
20260506050851 71 95 0.0 11.0 0.00 0.00 0.00 66 1006.1
20260506050349 71 98 3.0 10.0 0.00 0.00 0.00 66 1005.9
20260506044839 71 141 0.0 6.0 0.00 0.07 0.07 66 1006.0
20260506044337 71 126 4.0 10.0 0.00 0.07 0.07 66 1005.9
20260506043833 71 213 2.0 8.0 0.00 0.07 0.07 66 1006.2
20260506043331 71 145 2.0 18.0 0.00 0.07 0.07 66 1006.1
20260506042829 71 145 11.0 12.0 0.00 0.07 0.07 66 1006.2
20260506042328 71 126 1.0 9.0 0.00 0.07 0.07 68 1006.4
20260506041826 71 238 1.0 6.0 0.00 0.07 0.07 68 1006.4
20260506041323 71 119 0.0 6.0 0.00 0.07 0.07 66 1006.4
20260506040820 71 151 2.0 6.0 0.00 0.07 0.07 67 1006.4
20260506040317 71 100 6.0 7.0 0.00 0.07 0.07 66 1006.3
20260506035814 71 206 2.0 13.0 0.00 0.07 0.07 67 1006.3
20260506035311 71 145 5.0 9.0 0.00 0.07 0.07 67 1006.4
20260506034808 71 294 2.0 6.0 0.00 0.07 0.07 68 1006.6
20260506034305 71 334 1.0 6.0 0.00 0.07 0.07 68 1006.7
20260506033802 71 123 1.0 16.0 0.00 0.07 0.07 67 1006.5
20260506033259 71 154 2.0 9.0 0.00 0.07 0.07 68 1006.6
20260506032756 70 214 4.0 7.0 0.00 0.07 0.07 69 1006.7
20260506032253 70 184 2.0 13.0 0.00 0.07 0.07 68 1006.6
20260506031749 70 340 1.0 11.0 0.00 0.07 0.07 68 1006.8
20260506031247 70 190 4.0 5.0 0.00 0.07 0.07 68 1007.0
20260506030745 70 117 2.0 7.0 0.00 0.07 0.07 67 1006.6
20260506030243 70 181 2.0 8.0 0.00 0.07 0.07 68 1006.7
20260506025739 70 106 2.0 3.0 0.00 0.07 0.07 70 1006.6
20260506025235 69 326 0.0 3.0 0.00 0.07 0.07 70 1006.7
20260506024732 69 163 1.0 9.0 0.00 0.07 0.07 70 1006.6
20260506024229 69 109 2.0 4.0 0.00 0.07 0.07 71 1006.7
20260506023725 69 80 2.0 5.0 0.00 0.07 0.07 72 1006.5
20260506023223 68 145 0.0 5.0 0.00 0.07 0.07 73 1006.5
20260506022719 68 36 2.0 4.0 0.00 0.07 0.07 74 1006.5
20260506022217 68 124 3.0 7.0 0.00 0.07 0.07 74 1006.7
20260506021715 67 125 0.0 11.0 0.00 0.07 0.07 75 1006.7
20260506021212 67 104 2.0 6.0 0.00 0.07 0.07 78 1006.6
20260506020708 66 120 2.0 4.0 0.00 0.07 0.07 80 1006.6
20260506002258 71 290 0.0 6.0 0.00 0.01 0.01 59 1006.9
20260506001754 71 290 0.0 6.0 0.00 0.01 0.01 59 1006.9
20260506001252 71 93 1.0 3.0 0.00 0.01 0.01 60 1006.8
20260506000748 71 114 3.0 4.0 0.00 0.01 0.01 59 1006.8
20260506000247 70 190 2.0 4.0 0.00 0.01 0.01 59 1006.6
20260505235743 70 47 1.0 3.0 0.00 0.01 0.01 59 1006.6
20260505235241 70 91 2.0 2.0 0.00 0.01 0.01 60 1006.8
20260505234737 69 113 3.0 4.0 0.00 0.01 0.01 60 1006.8
20260505234235 69 101 1.0 3.0 0.00 0.01 0.01 62 1007.0
20260505233731 69 59 2.0 5.0 0.00 0.01 0.01 62 1007.0
20260505233229 69 92 2.0 2.0 0.00 0.01 0.01 64 1006.9
20260505232726 68 119 1.0 3.0 0.00 0.01 0.01 61 1006.9
20260505232224 68 143 0.0 3.0 0.00 0.01 0.01 65 1006.9
20260505231720 68 105 4.0 6.0 0.00 0.01 0.01 64 1006.6
20260505231219 68 106 3.0 4.0 0.00 0.01 0.01 65 1006.8
20260505230717 67 118 3.0 4.0 0.00 0.01 0.01 66 1007.0
20260505230213 67 88 2.0 3.0 0.02 0.01 0.01 70 1007.2
20260505225710 68 128 5.0 5.0 0.05 0.01 0.01 66 1007.1
20260505225207 69 54 2.0 2.0 0.05 0.01 0.01 66 1007.4
20260505224702 70 125 0.0 3.0 0.02 0.00 0.00 59 1007.3
20260505224200 71 146 4.0 6.0 0.00 0.00 0.00 55 1007.6
20260505223658 71 139 2.0 5.0 0.00 0.00 0.00 53 1007.7
20260505223153 72 96 2.0 3.0 0.00 0.00 0.00 52 1007.9
20260505222649 73 98 2.0 3.0 0.00 0.00 0.00 50 1007.8
20260505222146 73 288 0.0 5.0 0.00 0.00 0.00 51 1008.0
20260505221643 73 181 1.0 5.0 0.00 0.00 0.00 51 1007.8
20260505221139 72 89 0.0 4.0 0.00 0.00 0.00 50 1007.8
20260505220637 73 139 6.0 6.0 0.00 0.00 0.00 47 1007.3
20260505220134 73 168 2.0 7.0 0.00 0.00 0.00 45 1006.8
20260505215632 74 33 3.0 7.0 0.00 0.00 0.00 45 1007.4
20260505215130 74 98 2.0 12.0 0.00 0.00 0.00 45 1007.9
20260505214628 75 156 9.0 15.0 0.00 0.00 0.00 42 1008.0
20260505214124 75 234 3.0 8.0 0.00 0.00 0.00 43 1008.1
20260505213622 75 275 2.0 4.0 0.00 0.00 0.00 44 1008.1
20260505213118 75 169 2.0 9.0 0.00 0.00 0.00 43 1007.9
20260505212615 76 258 2.0 4.0 0.00 0.00 0.00 44 1007.7
20260505212113 77 109 4.0 5.0 0.00 0.00 0.00 43 1007.7
20260505211609 77 39 2.0 6.0 0.00 0.00 0.00 44 1007.7
20260505211106 77 220 3.0 7.0 0.00 0.00 0.00 42 1007.4
20260505210602 78 189 2.0 6.0 0.00 0.00 0.00 42 1007.4
20260505210100 78 87 4.0 12.0 0.00 0.00 0.00 40 1007.3
20260505205557 77 75 2.0 7.0 0.00 0.00 0.00 42 1007.3
20260505205055 78 161 6.0 13.0 0.00 0.00 0.00 40 1007.3
20260505204552 78 172 2.0 8.0 0.00 0.00 0.00 41 1007.5
20260505204049 79 158 9.0 12.0 0.00 0.00 0.00 40 1007.5
20260505203545 79 125 2.0 5.0 0.00 0.00 0.00 44 1007.3
20260505203043 78 151 2.0 12.0 0.00 0.00 0.00 42 1007.6
20260505202539 78 91 0.0 11.0 0.00 0.00 0.00 44 1007.9
20260505202035 78 76 3.0 9.0 0.00 0.00 0.00 43 1007.9
20260505201532 77 254 0.0 5.0 0.00 0.00 0.00 45 1007.9
20260505201030 76 122 3.0 6.0 0.00 0.00 0.00 47 1008.1
20260505200527 77 123 9.0 14.0 0.00 0.00 0.00 43 1008.1
20260505200024 77 155 6.0 10.0 0.00 0.00 0.00 44 1008.3
20260505195520 77 135 1.0 11.0 0.00 0.00 0.00 45 1008.2
20260505195018 77 151 2.0 10.0 0.00 0.00 0.00 45 1008.3
20260505194515 76 75 1.0 8.0 0.00 0.00 0.00 47 1008.4
20260505194010 76 142 4.0 11.0 0.00 0.00 0.00 47 1008.3
20260505193508 75 139 4.0 13.0 0.00 0.00 0.00 46 1008.7
20260505193004 75 53 4.0 11.0 0.00 0.00 0.00 46 1008.8
20260505192503 75 132 7.0 11.0 0.00 0.00 0.00 46 1009.0
20260505192000 75 9 3.0 12.0 0.00 0.00 0.00 45 1009.0
20260505191459 76 259 2.0 9.0 0.00 0.00 0.00 45 1009.2
20260505190956 76 138 2.0 9.0 0.00 0.00 0.00 46 1009.3
20260505190450 76 325 4.0 12.0 0.00 0.00 0.00 45 1009.3
20260505185946 75 260 0.0 9.0 0.00 0.00 0.00 49 1009.4
20260505185444 75 233 3.0 4.0 0.00 0.00 0.00 48 1009.5
20260505184940 74 134 4.0 13.0 0.00 0.00 0.00 49 1009.3
20260505184437 74 200 2.0 5.0 0.00 0.00 0.00 50 1009.2
20260505183933 74 179 5.0 11.0 0.00 0.00 0.00 48 1009.2
20260505183430 73 133 7.0 10.0 0.00 0.00 0.00 50 1009.2
20260505182927 73 121 5.0 9.0 0.00 0.00 0.00 51 1009.2
20260505182424 72 157 4.0 8.0 0.00 0.00 0.00 52 1009.2
20260505181920 72 121 12.0 14.0 0.00 0.00 0.00 52 1009.4
20260505181418 72 127 4.0 11.0 0.00 0.00 0.00 52 1009.1
20260505180914 72 164 1.0 9.0 0.00 0.00 0.00 54 1009.3
20260505180411 72 147 0.0 6.0 0.00 0.00 0.00 54 1009.2
20260505175907 72 93 4.0 6.0 0.00 0.00 0.00 54 1009.4
20260505175404 72 101 4.0 11.0 0.00 0.00 0.00 53 1009.7
20260505174900 72 149 4.0 11.0 0.00 0.00 0.00 53 1009.5
20260505174358 72 117 4.0 8.0 0.00 0.00 0.00 55 1009.5
20260505173854 72 203 5.0 13.0 0.00 0.00 0.00 53 1009.7
20260505173350 72 69 0.0 15.0 0.00 0.00 0.00 54 1009.7
20260505172847 72 223 2.0 4.0 0.00 0.00 0.00 54 1009.9
20260505172345 72 117 2.0 12.0 0.00 0.00 0.00 55 1009.9
20260505171844 72 95 1.0 7.0 0.00 0.00 0.00 55 1009.9
20260505171342 71 182 3.0 5.0 0.00 0.00 0.00 54 1010.1
20260505170838 71 125 3.0 5.0 0.00 0.00 0.00 55 1010.3
20260505170335 71 170 2.0 7.0 0.00 0.00 0.00 56 1010.6
20260505165830 71 134 5.0 5.0 0.00 0.00 0.00 55 1010.7
20260505165326 71 131 2.0 5.0 0.00 0.00 0.00 54 1010.9
20260505164822 72 142 9.0 9.0 0.00 0.00 0.00 54 1011.0
20260505164319 72 227 2.0 3.0 0.00 0.00 0.00 55 1011.0
20260505163817 72 150 2.0 6.0 0.00 0.00 0.00 53 1011.2
20260505163316 73 83 2.0 8.0 0.00 0.00 0.00 53 1011.2
20260505162814 72 83 2.0 2.0 0.00 0.00 0.00 55 1011.4
20260505162309 72 110 5.0 5.0 0.00 0.00 0.00 56 1011.4
20260505161807 72 106 4.0 5.0 0.00 0.00 0.00 54 1011.4
20260505161304 72 161 0.0 6.0 0.00 0.00 0.00 57 1011.4